Weather in Tatarino

Russia / Voronezh Oblast     50°35′13″N   39°07′22″E
temp.,
°C
wind,
m/s
gust,
m/s
humid.,
%
clouds,
%
prec.,
mm/h
press.,
hPa
HPBL,
m
27 september, mon
mon2700:00+8nw7128138 0.1 1012667
03:00+8nw61283100 0.1 1013689
06:00+8nw71285100 0.1 1014690
09:00+10nnw6108184 0.1 1015777
12:00+14n786097 0.6 10161365
15:00+13n686684 0.8 1017841
18:00+11n4770100 0.0 1018467
21:00+10n487361 0.0 1019372
28 september, tue
tue2800:00+7nnw34915 0.0 101988
03:00+7nnw2590100 0.0 1020161
06:00+8n3792100 0.2 1020310
09:00+9nne468994 0.8 1021424
12:00+10ne6776100 0.1 1023787
15:00+10ne566797 0.2 1024861
18:00+9nne577588 0.0 1026648
21:00+7ne5885100 0.0 1028605
29 september, wed
wed2900:00+7ne5879100 0.1 1029606
03:00+7ne4772100 0.1 1030542
06:00+6ne4771100 0.0 1031479
09:00+8ne57575 0.0 1032670
12:00+11ne56437 0.0 10321350
15:00+12ne56375 0.0 10311489
18:00+9ne3647100 0.0 1031135
21:00+6ne36578 0.0 1033109
30 september, thu
thu3000:00+5ne34635 0.0 103363
03:00+4ne33675 0.0 103439
06:00+3ne33715 0.0 103540
09:00+7ne355416 0.0 1035387
12:00+11ene34405 0.0 10351369
15:00+12ne33365 0.0 10341603
18:00+9ne33475 0.0 103432
21:00+7ene22550 0.0 103525
1 october, fri
fri100:00+6e22595 0.0 103610
03:00+5ne116222 0.0 103610
06:00+4ne11655 0.0 103610
09:00+9ne22500 0.0 1037273
12:00+12ne22405 0.0 10361318
15:00+14ne23375 0.0 10351566
18:00+10ne33505 0.0 103525
21:00+8ene22563 0.0 103611